Regional Weather Roundup
Issued by NWS Raleigh/Durham, NC

Home | Current Version | Previous Version | Text Only | Print | Product List | Glossary On
Versions: 1 2 3 4 5 6 7 8 9 10 11 12 13 14 15 16 17 18 19 20 21 22 23 24 25 26 27 28 29 30 31 32 33 34 35 36 37 38 39 40 41 42 43 44 45 46 47 48 49 50
000
ASUS42 KRAH 310810
RWRRAH
NORTH CAROLINA WEATHER ROUNDUP
NATIONAL WEATHER SERVICE RALEIGH NC
300 AM EST SAT JAN 31 2015

NOTE: "FAIR" INDICATES FEW OR NO CLOUDS BELOW 12,000 FEET WITH NO
SIGNIFICANT WEATHER AND/OR OBSTRUCTIONS TO VISIBILITY.

NCZ001-053-055-056-065-067-310900-
WESTERN NORTH CAROLINA

CITY           SKY/WX    TMP DP  RH WIND       PRES   REMARKS
ASHEVILLE      CLEAR     27  13  55 N12       30.30R WCI  17
JEFFERSON      CLEAR     24  -6  27 NW7G18    30.18R WCI  15
MORGANTON      CLEAR     22  15  72 CALM      30.34R
HICKORY        CLEAR     26  11  52 CALM      30.29S
RUTHERFORDTON  CLEAR     24  16  70 NW3       30.31S
MOUNT AIRY     CLEAR     29   5  35 CALM      30.30S
BOONE          CLEAR     21   8  56 W5        30.21S WCI  15
$$

NCZ021-022-025-041-071-084-088-310900-
CENTRAL NORTH CAROLINA

CITY           SKY/WX    TMP DP  RH WIND       PRES   REMARKS
CHARLOTTE      CLEAR     27  13  55 CALM      30.32S
GREENSBORO     PTCLDY    25   8  48 NW5       30.29S WCI  19
WINSTON-SALEM  CLEAR     24   8  50 CALM      30.31R
RALEIGH-DURHAM PTCLDY    27   8  44 NW5       30.32R WCI  22
FORT BRAGG     CLEAR     28   8  44 NW6       30.32R WCI  21
FAYETTEVILLE   CLEAR     28   9  44 N6        30.33R WCI  22
BURLINGTON     CLEAR     22   8  55 S5        30.31R WCI  16
LAURINBURG     PTCLDY    26  10  50 N7        30.34R WCI  18
$$

NCZ011-015-027-028-043-044-047-080-103-310900-
NORTHEASTERN NORTH CAROLINA

CITY           SKY/WX    TMP DP  RH WIND       PRES   REMARKS
ROCKY MT-WILSO CLEAR     28  10  46 NW9       30.31R WCI  19
GREENVILLE     CLEAR     28  12  50 CALM      30.30S
WASHINGTON     CLEAR     28  13  54 NW3       30.29S
ELIZABETH CITY CLEAR     27  11  51 NW14G20   30.26S WCI  16
MANTEO         CLEAR     28   9  43 N20G28    30.24S WCI  15
CAPE HATTERAS  CLEAR     32  13  45 NW14G28   30.23R WCI  22
$$

NCZ078-087-090-091-093-098-101-310900-
SOUTHEASTERN NORTH CAROLINA

CITY           SKY/WX    TMP DP  RH WIND       PRES   REMARKS
LUMBERTON      PTCLDY    30  12  47 N7        30.32R WCI  23
GOLDSBORO      CLEAR     36  12  38 NW13G21   30.24R WCI  27
KINSTON        CLEAR     28  13  52 NW5       30.31R WCI  23
KENANSVILLE    CLEAR     29  11  47 NW5       30.33R WCI  24
NEW BERN       CLEAR     32  12  43 NW12      30.30R WCI  23
CHERRY POINT   CLEAR     31  12  45 NW14      30.29S WCI  21
BEAUFORT       CLEAR     31  14  49 N13       30.28R WCI  21
JACKSONVILLE   CLEAR     30  12  47 NW13      30.30R WCI  20
WILMINGTON     CLEAR     32  11  41 N12       30.30R WCI  23
$$



USA.gov is the U.S. government's official web portal to all federal, state and local government web resources and services.